Find Starlink 38248

NORAD ID: 100435 Int'l Des: 2026-193 Owner: SPXS Country: US Constellation: starlink operational

Aktuelle Ansicht

3D-Globus wird geladen...

About Starlink 38248

Starlink 38248 (NORAD 100435) is a starlink constellation satellite launched Aug 22, 2026 by SPXS of US. with a mass of 575.00 kg.

Nächste Überflüge

Passes for default location (London). Set your location on the main map for personalized predictions.

Höhenverlauf

Loading altitude history...

Zweizeiliger Elementsatz

1 A0435U 26193C 26249.35945003 -.00191921 00000-0 -96208-3 0 9998
2 A0435 69.9993 113.7325 0002880 282.6445 77.4435 15.81959377 3480
Epoch: 6. Sept. 2026 • Age: 12 hours

Aktueller Status

Höhe 331.1 km
Apogäum / Perigäum N/A
Geschwindigkeit 7.71 km/s
Subsatellitenpunkt 37.85°N, 171.45°W
Startdatum 22. Aug. 2026
Alter 15 days
Typ internet

Technische Details

Klassifizierung Payload
Masse 575.00 kg
Trockenmasse 530.00 kg
Gesamtmasse 575.00 kg
Länge 0.30 m
Durchmesser 4.10 m
Spannweite 29.00 m
Form Box + pan
Hersteller SPXS
Bus-Typ Starlink V2MO
Phasenstatus In Orbit
Besitzer/Staat SPXS/US

Most Searched